Simultaneous Nadir Overpasses (SNOs) Predictions

Prediction of SNOs over PacNW region [( 10.00, 139.50) to ( 22.70, 165.60)] between AQUA and NPP Satellites:

Table of predicted SNOs over PacNW region for the next 30.0 days since TLE Epoch: 12/11/2021
Index Date (AQUA) Time (AQUA) AQUA Lat,Lon Date (NPP) Time (NPP) NPP Lat,Lon Distance(km) Time Diff (sec)
1 12/13/2021 15:10:24 22.61, 159.83 12/13/2021 15:12:19 23.22, 157.08 290.21 115
2 12/16/2021 03:32:18 22.69, 147.48 12/16/2021 03:28:48 23.60, 145.38 236.85 210
3 12/21/2021 16:00:00 22.60, 147.45 12/21/2021 16:02:54 23.28, 144.43 318.26 174
4 12/29/2021 15:10:40 22.61, 159.80 12/29/2021 15:12:00 23.20, 157.13 281.61 80
5 01/01/2022 03:32:32 22.65, 147.46 01/01/2022 03:29:03 25.63, 144.92 420.14 209
6 01/06/2022 16:00:12 22.59, 147.43 01/06/2022 16:02:33 23.26, 144.49 310.48 141
